Terug naar catalogus

SHUTIANYUXING-04

ActiefWetenschapSSO
NORAD 67750·PAYLOAD·🇨🇳 China
Deze satellietnaam is nog niet bevestigd door officiële bronnen.

Gelanceerd Feb 12, 2026 vanaf South China Sea Launch Area

Loading…

Volgende Passages (komende 24 uur)

TLE

VersSource: Space-Track

Epoch: Sep 14, 2026, 07:19 UTC

1 67750U 26027E   26257.30529359  .00005433  00000-0  25136-3 0  9995
2 67750  97.5190  25.2054 0007833 275.8215  84.2127 15.20535820 32502

Volg SHUTIANYUXING-04 in realtime met AllMySat

Download on the App Store